Pontiac, MI

6:52 AM EST on November 13, 2019 (GMT -0500)
Oakland County International

Weather History for KPTK - June, 2019

Change the Weather History Date:

Friday, June 7, 2019

  Actual Average Record
Temperature  
Mean Temperature 66 °F -  
Max Temperature 78 °F 72 °F 93 °F (2011)
Min Temperature 54 °F 52 °F 42 °F (1998)
Cooling Degree Days 1    
Growing Degree Days 16 (Base 50)    
Moisture  
Dew Point 54 °F    
Average Humidity 74    
Maximum Humidity 100    
Minimum Humidity 32    
Precipitation  
Precipitation 0.00 in - - ()
Sea Level Pressure  
Sea Level Pressure 29.98 in    
Wind  
Wind Speed 3 mph (ENE)    
Max Wind Speed 14 mph    
Max Gust Speed 20 mph    
Visibility 6 miles    
Events Fog    
Averages and records for this station are not official NWS values.
T = Trace of Precipitation, MM = Missing Value Source: NWS Daily Summary

Daily Weather History Graph

Daily Weather History Graph

Search for Another Location

Airport or City:

Astronomy

Jun. 07, 2019 Rise Set
Actual Time 5:56 AM EDT 9:09 PM EDT
Civil Twilight 5:21 AM EDT 9:43 PM EDT
Nautical Twilight 4:37 AM EDT 10:28 PM EDT
Astronomical Twilight 3:43 AM EDT 11:22 PM EDT
Moon 10:13 AM EDT (6/7) 12:24 AM EDT (6/7)
Length of Visible Light 16h 22m
Length of Day
15h 12m
Waxing Crescent, 22% of the Moon is Illuminated
Jun 7
Waxing Crescent
Jun 10
First Quarter
Jun 17
Full
Jun 25
Last Quarter
Jul 2
New

Hourly Weather History & Observations

Time (EDT) Temp. Dew Point Humidity Pressure Visibility Wind Dir Wind Speed Gust Speed Precip Events Conditions
12:53 AM 61.0 °F 59.0 °F 93% 29.94 in 6.0 mi South 3.5 mph - N/A   Clear
1:53 AM 59.0 °F 57.9 °F 96% 29.94 in 5.0 mi Calm Calm - N/A   Clear
2:47 AM 57.2 °F 57.2 °F 100% 29.94 in 1.8 mi Calm Calm - N/A   Clear
2:50 AM 57.2 °F 57.2 °F 100% 29.94 in 1.0 mi Calm Calm - N/A   Mist
3:12 AM 55.9 °F 55.9 °F 100% 29.94 in 0.8 mi Calm Calm - N/A   Clear
3:19 AM 55.9 °F 55.9 °F 100% 29.94 in 0.5 mi Calm Calm - N/A Fog Fog
3:30 AM 55.9 °F 55.9 °F 100% 29.95 in 1.5 mi Calm Calm - N/A   Partly Cloudy
3:33 AM 55.9 °F 55.9 °F 100% 29.95 in 3.0 mi Calm Calm - N/A   Partly Cloudy
3:53 AM 55.9 °F 55.9 °F 100% 29.94 in 4.0 mi North 3.5 mph - N/A   Clear
4:53 AM 57.0 °F 55.9 °F 96% 29.94 in 3.0 mi Calm Calm - N/A   Clear
5:43 AM 55.0 °F 55.0 °F 100% 29.96 in 2.0 mi Calm Calm - N/A   Clear
5:53 AM 55.0 °F 55.0 °F 100% 29.96 in 1.5 mi Calm Calm - N/A Fog Shallow Fog
6:02 AM 55.0 °F 55.0 °F 100% 29.97 in 1.0 mi Calm Calm - N/A Fog Shallow Fog
6:20 AM 54.0 °F 54.0 °F 100% 29.97 in 2.0 mi Calm Calm - N/A Fog Shallow Fog
6:53 AM 57.0 °F 55.9 °F 96% 29.97 in 2.5 mi Calm Calm - N/A   Mostly Cloudy
7:05 AM 57.9 °F 57.0 °F 97% 29.98 in 3.0 mi Calm Calm - N/A   Mostly Cloudy
7:53 AM 62.1 °F 59.0 °F 90% 29.98 in 4.0 mi NE 4.6 mph - N/A   Scattered Clouds
8:53 AM 66.9 °F 59.0 °F 76% 30.00 in 9.0 mi NE 8.1 mph - N/A   Mostly Cloudy
9:53 AM 70.0 °F 55.0 °F 59% 30.01 in 10.0 mi ENE 11.5 mph - N/A   Scattered Clouds
10:53 AM 72.0 °F 55.0 °F 55% 30.01 in 10.0 mi ENE 10.4 mph - N/A   Scattered Clouds
11:53 AM 73.9 °F 55.9 °F 53% 30.01 in 10.0 mi ENE 11.5 mph 17.3 mph N/A   Scattered Clouds
12:53 PM 75.0 °F 55.0 °F 50% 30.01 in 10.0 mi NE 8.1 mph 17.3 mph N/A   Scattered Clouds
1:53 PM 75.9 °F 54.0 °F 46% 30.00 in 10.0 mi ENE 9.2 mph - N/A   Partly Cloudy
2:53 PM 77.0 °F 52.0 °F 42% 29.99 in 10.0 mi East 9.2 mph - N/A   Partly Cloudy
3:53 PM 78.1 °F 50.0 °F 37% 29.99 in 10.0 mi East 11.5 mph 19.6 mph N/A   Scattered Clouds
4:53 PM 78.1 °F 46.0 °F 32% 29.99 in 10.0 mi NE 13.8 mph 18.4 mph N/A   Partly Cloudy
5:53 PM 77.0 °F 46.9 °F 34% 29.99 in 10.0 mi ENE 11.5 mph - N/A   Partly Cloudy
6:53 PM 75.9 °F 45.0 °F 33% 29.99 in 10.0 mi NE 10.4 mph - N/A   Partly Cloudy
7:53 PM 73.9 °F 46.0 °F 37% 29.99 in 10.0 mi NE 11.5 mph - N/A   Partly Cloudy
8:53 PM 70.0 °F 48.0 °F 46% 30.00 in 10.0 mi ENE 6.9 mph - N/A   Partly Cloudy
9:53 PM 66.9 °F 48.9 °F 52% 30.02 in 10.0 mi NE 5.8 mph - N/A   Partly Cloudy
10:53 PM 64.0 °F 50.0 °F 60% 30.04 in 10.0 mi ENE 5.8 mph - N/A   Partly Cloudy
11:53 PM 61.0 °F 46.9 °F 60% 30.05 in 10.0 mi NE 6.9 mph - N/A   Partly Cloudy